Location: Newark
(39.0622°N, 106.5590°E)
Time: 16:17:26
(UTC+00:00)

Courier 1B - Pass Details

Date: 27 January 2020
Orbit: 962 x 1209 km, 28.3° (Epoch: 21 February)

Event Time Altitude Azimuth Distance (km) Brightness Sun altitude
Rises 19:24:09 0° 240° (WSW) 3,786 - -53.8°
Reaches altitude 10° 19:27:04 10° 231° (SW) 2,872 - -53.3°
Maximum altitude 19:33:13 33° 170° (S) 1,771 - -52.2°
Exits shadow 19:39:36 10° 111° (ESE) 3,007 10.3 -51.0°
Drops below altitude 10° 19:39:42 10° 110° (ESE) 3,036 10.4 -51.0°
Sets 19:42:53 0° 101° (ESE) 4,032 11.2 -50.4°
